Regional Weather Roundup
Issued by NWS Northern Indiana

Home | Current Version | Previous Version | Text Only | Print | Product List | Glossary Off
Versions: 1 2 3 4 5 6 7 8 9 10 11 12 13 14 15 16 17 18 19 20 21 22 23 24 25 26 27 28 29 30 31 32 33 34 35 36 37 38 39 40 41 42 43 44 45 46 47 48 49 50

000
ASUS43 KIWX 222300
RWRIWX

KIWX WEATHER ROUNDUP
NATIONAL WEATHER SERVICE NORTHERN INDIANA
700 PM EDT FRI MAY 22 2015

NOTE: "FAIR" INDICATES FEW OR NO CLOUDS BELOW 12,000 FEET WITH NO
SIGNIFICANT WEATHER AND/OR OBSTRUCTIONS TO VISIBILITY.

* THESE STATIONS ARE NOT UNDER NWS QUALITY CONTROL. THEY ALSO MAY NOT
  REPORT WEATHER SUCH AS PRECIPITATION OR FOG.

INZ001>027-230000-
NORTHERN INDIANA

CITY           SKY/WX    TMP DP  RH WIND       PRES   REMARKS
GARY*          PTSUNNY   55  36  47 NE9       30.27F
SOUTH BEND     MOSUNNY   65  32  29 N12       30.26R
GOSHEN         MOSUNNY   66  35  31 N15       30.23S
ANGOLA*        SUNNY     66  37  34 N5        30.23S
FORT WAYNE     PTSUNNY   69  39  33 N8        30.23R

$$
INZ028>050-230000-
CENTRAL INDIANA

CITY           SKY/WX    TMP DP  RH WIND       PRES   REMARKS
LAFAYETTE      PTSUNNY   72  41  32 N6        30.21R
KOKOMO*        PTSUNNY   72  39  30 NW8       30.22R
MUNCIE*        PTSUNNY   72  40  31 N6        30.22R
INDIANAPOLIS   CLOUDY    73  41  31 W6        30.21R

$$
MIZ043>046-050>051-056>058-064>065-071>073-077>080-230000-
SOUTHWEST LOWER MICHIGAN

CITY           SKY/WX    TMP DP  RH WIND       PRES   REMARKS
BATTLE CREEK   SUNNY     65  29  25 NW15G22   30.25S
BENTON HARBOR  MOSUNNY   58  32  37 VRB5      30.27S
COLDWATER*     SUNNY     65  31  29 NW12      30.23S
HILLSDALE*     SUNNY     67  30  24 NW12G18   30.23S
HOLLAND        SUNNY     61  29  29 NW7       30.28F
GRAND RAPIDS   MOSUNNY   64  28  25 W12       30.26R
KALAMAZOO      SUNNY     63  29  27 N14G22    30.26S
STURGIS*       SUNNY     64  34  32 NW9       30.24R
THREE RIVERS*  FAIR      64  32  29 NW9       30.26R

$$
OHZ001>008-015>018-024>025-230000-
NORTHWEST OHIO

CITY           SKY/WX    TMP DP  RH WIND       PRES   REMARKS
DEFIANCE       SUNNY     70  33  25 W6        30.23R
FINDLAY        SUNNY     70  31  23 NW9       30.21S
TOLEDO EXPRESS SUNNY     68  29  23 NW9       30.22S
TOLEDO METCALF SUNNY     69  27  20 N10       30.23S
LIMA           SUNNY     68  32  26 NW10      30.22R

$$
AND FOR LAKE MICHIGAN COASTAL AND OPEN LAKE BUOY OBSERVATIONS

STATION/POSITION TEMP    WIND        PRES    VSBY  WAVE
                 AIR SEA DIR/SP/G                  HT/PER
                 (F)     (DEG/KT/KT) (MB)    (MI)  (FT/S)
CALUMET HARBOR    49      60/  6/  7   N/A
MICHIGAN CITY     52      30/ 12/ 13   N/A
BURNS HARBOR      52      30/  7/  8 1026.1S
SAINT JOSEPH      56     360/  8/ 15 1025.4S
SOUTH LAKE BUOY   42 38   50/ 10/ 10 1025.5F         0
4 MI NW BRIDGMAN  52 53   60/ 14/ 16   N/A           2/ 3
MICHIGAN CITY     52 51   80/  6/  8   N/A           2/ 3

$$
&&



USA.gov is the U.S. government's official web portal to all federal, state and local government web resources and services.